Meteo pe oră la Dabroszyn

Astăzi, 17 Aprilie, Sâmbătă

Timp Temperatura Precipitaţii Vânt Presiune Umiditate
00:00 +3°C° 0.2 mm 4 m/s 762 mmHg 85%
01:00 +3°C° 0.2 mm 3 m/s 762 mmHg 88%
02:00 +3°C° 0 mm 3 m/s 762 mmHg 90%
03:00 +3°C° 0 mm 3 m/s 762 mmHg 91%
04:00 +3°C° 0 mm 3 m/s 762 mmHg 92%
05:00 +3°C° 0 mm 3 m/s 762 mmHg 92%
06:00 +3°C° 0 mm 3 m/s 762 mmHg 92%
07:00 +5°C° 0 mm 2 m/s 762 mmHg 92%
08:00 +5°C° 0 mm 2 m/s 762 mmHg 90%
09:00 +6°C° 0 mm 2 m/s 762 mmHg 88%
10:00 +7°C° 0 mm 2 m/s 762 mmHg 86%
11:00 +8°C° 0 mm 3 m/s 762 mmHg 83%
12:00 +9°C° 0 mm 3 m/s 762 mmHg 80%
13:00 +10°C° 0 mm 4 m/s 762 mmHg 77%
14:00 +11°C° 0.1 mm 4 m/s 762 mmHg 77%
15:00 +11°C° 0.1 mm 4 m/s 761 mmHg 76%
16:00 +11°C° 0.1 mm 4 m/s 761 mmHg 76%
17:00 +10°C° 0.4 mm 4 m/s 761 mmHg 81%
18:00 +8°C° 0.4 mm 4 m/s 761 mmHg 86%
19:00 +8°C° 0.4 mm 3 m/s 761 mmHg 92%
20:00 +8°C° 0.1 mm 3 m/s 761 mmHg 93%
21:00 +7°C° 0.1 mm 3 m/s 761 mmHg 94%
22:00 +5°C° 0.1 mm 3 m/s 762 mmHg 96%
23:00 +6°C° 0 mm 2 m/s 761 mmHg 96%

Mâine, 18 Aprilie, Duminică

Timp Temperatura Precipitaţii Vânt Presiune Umiditate
00:00 +6°C° 0 mm 2 m/s 761 mmHg 96%
01:00 +6°C° 0 mm 2 m/s 761 mmHg 96%
02:00 +6°C° 0.1 mm 2 m/s 761 mmHg 96%
03:00 +6°C° 0.1 mm 2 m/s 761 mmHg 97%
04:00 +6°C° 0.1 mm 2 m/s 761 mmHg 97%
05:00 +7°C° 0 mm 2 m/s 761 mmHg 94%
06:00 +7°C° 0 mm 2 m/s 761 mmHg 92%
07:00 +8°C° 0 mm 3 m/s 762 mmHg 89%
08:00 +9°C° 0.1 mm 3 m/s 761 mmHg 83%
09:00 +11°C° 0.1 mm 3 m/s 761 mmHg 77%
10:00 +13°C° 0.1 mm 4 m/s 761 mmHg 72%
11:00 +13°C° 1 mm 4 m/s 761 mmHg 71%
12:00 +13°C° 1 mm 4 m/s 761 mmHg 71%
13:00 +13°C° 1 mm 4 m/s 761 mmHg 71%
14:00 +13°C° 0.4 mm 4 m/s 761 mmHg 70%
15:00 +13°C° 0.4 mm 3 m/s 760 mmHg 69%
16:00 +13°C° 0.4 mm 3 m/s 760 mmHg 69%
17:00 +12°C° 0.4 mm 3 m/s 760 mmHg 74%
18:00 +12°C° 0.4 mm 2 m/s 761 mmHg 80%
19:00 +10°C° 0.4 mm 2 m/s 761 mmHg 85%
20:00 +9°C° 0 mm 2 m/s 761 mmHg 88%
21:00 +9°C° 0 mm 2 m/s 761 mmHg 91%
22:00 +8°C° 0 mm 2 m/s 761 mmHg 93%
23:00 +8°C° 0.1 mm 2 m/s 761 mmHg 94%

Poimâine, 19 Aprilie, Luni

Timp Temperatura Precipitaţii Vânt Presiune Umiditate
00:00 +8°C° 0.1 mm 2 m/s 761 mmHg 95%
01:00 +8°C° 0.1 mm 2 m/s 761 mmHg 95%
02:00 +8°C° 0 mm 2 m/s 761 mmHg 96%
03:00 +8°C° 0 mm 2 m/s 760 mmHg 96%
04:00 +8°C° 0 mm 2 m/s 760 mmHg 96%
05:00 +9°C° 0.1 mm 2 m/s 760 mmHg 95%
06:00 +9°C° 0.1 mm 2 m/s 760 mmHg 95%
07:00 +9°C° 0.1 mm 2 m/s 760 mmHg 94%
08:00 +10°C° 0.1 mm 3 m/s 760 mmHg 89%
09:00 +11°C° 0.1 mm 3 m/s 760 mmHg 83%
10:00 +12°C° 0.1 mm 4 m/s 760 mmHg 78%
11:00 +13°C° 0.1 mm 4 m/s 760 mmHg 70%
12:00 +14°C° 0.1 mm 4 m/s 760 mmHg 62%
13:00 +15°C° 0.1 mm 4 m/s 760 mmHg 54%
14:00 +14°C° 0 mm 4 m/s 760 mmHg 55%
15:00 +14°C° 0 mm 4 m/s 759 mmHg 55%
16:00 +14°C° 0 mm 3 m/s 759 mmHg 56%
17:00 +13°C° 0 mm 3 m/s 759 mmHg 60%
18:00 +12°C° 0 mm 3 m/s 759 mmHg 63%
19:00 +12°C° 0 mm 2 m/s 759 mmHg 66%
20:00 +12°C° 0 mm 2 m/s 759 mmHg 69%
21:00 +10°C° 0 mm 2 m/s 759 mmHg 71%
22:00 +10°C° 0 mm 2 m/s 759 mmHg 73%
23:00 +9°C° 0 mm 2 m/s 759 mmHg 76%

20 Aprilie, Marţi

Timp Temperatura Precipitaţii Vânt Presiune Umiditate
00:00 +9°C° 0 mm 2 m/s 759 mmHg 79%
01:00 +8°C° 0 mm 2 m/s 759 mmHg 82%
02:00 +8°C° 0 mm 2 m/s 758 mmHg 84%
03:00 +7°C° 0 mm 2 m/s 758 mmHg 86%
04:00 +6°C° 0 mm 2 m/s 758 mmHg 89%
05:00 +7°C° 0 mm 2 m/s 758 mmHg 86%
06:00 +8°C° 0 mm 2 m/s 758 mmHg 83%
07:00 +9°C° 0 mm 2 m/s 758 mmHg 80%
08:00 +10°C° 0.2 mm 2 m/s 758 mmHg 74%
09:00 +12°C° 0.2 mm 2 m/s 758 mmHg 69%
10:00 +13°C° 0.2 mm 2 m/s 757 mmHg 63%
11:00 +13°C° 0.2 mm 2 m/s 757 mmHg 61%
12:00 +14°C° 0.2 mm 2 m/s 757 mmHg 60%
13:00 +13°C° 0.2 mm 3 m/s 756 mmHg 58%
14:00 +13°C° 0.1 mm 3 m/s 756 mmHg 59%
15:00 +13°C° 0.1 mm 3 m/s 756 mmHg 59%
16:00 +12°C° 0.1 mm 3 m/s 756 mmHg 60%
17:00 +12°C° 0 mm 2 m/s 756 mmHg 64%
18:00 +10°C° 0 mm 2 m/s 756 mmHg 68%
19:00 +9°C° 0 mm 2 m/s 755 mmHg 72%
20:00 +8°C° 0 mm 2 m/s 755 mmHg 76%
21:00 +7°C° 0 mm 2 m/s 755 mmHg 80%
22:00 +7°C° 0 mm 1 m/s 755 mmHg 84%
23:00 +7°C° 0 mm 1 m/s 755 mmHg 86%

21 Aprilie, Miercuri

Timp Temperatura Precipitaţii Vânt Presiune Umiditate
00:00 +6°C° 0 mm 1 m/s 755 mmHg 88%
01:00 +6°C° 0 mm 1 m/s 755 mmHg 90%
02:00 +6°C° 0 mm 1 m/s 755 mmHg 90%
03:00 +5°C° 0 mm 1 m/s 754 mmHg 90%
04:00 +5°C° 0 mm 1 m/s 754 mmHg 91%
05:00 +6°C° 0 mm 1 m/s 754 mmHg 86%
06:00 +7°C° 0 mm 1 m/s 754 mmHg 82%
07:00 +7°C° 0 mm 0 m/s 754 mmHg 78%
08:00 +10°C° 0 mm 1 m/s 754 mmHg 72%
09:00 +11°C° 0 mm 1 m/s 754 mmHg 66%
10:00 +13°C° 0 mm 1 m/s 754 mmHg 60%
11:00 +14°C° 0.1 mm 1 m/s 753 mmHg 57%
12:00 +14°C° 0.1 mm 1 m/s 753 mmHg 53%
13:00 +15°C° 0.1 mm 2 m/s 753 mmHg 49%
14:00 +15°C° 0 mm 1 m/s 753 mmHg 49%
15:00 +15°C° 0 mm 1 m/s 752 mmHg 49%
16:00 +16°C° 0 mm 1 m/s 752 mmHg 49%
17:00 +14°C° 0 mm 1 m/s 752 mmHg 54%
18:00 +13°C° 0 mm 1 m/s 752 mmHg 60%
19:00 +12°C° 0 mm 2 m/s 752 mmHg 66%
20:00 +10°C° 0 mm 2 m/s 752 mmHg 67%
21:00 +10°C° 0 mm 2 m/s 752 mmHg 69%
22:00 +9°C° 0 mm 2 m/s 752 mmHg 70%
23:00 +9°C° 0 mm 2 m/s 752 mmHg 72%

22 Aprilie, Joi

Timp Temperatura Precipitaţii Vânt Presiune Umiditate
00:00 +8°C° 0 mm 2 m/s 752 mmHg 75%
01:00 +8°C° 0 mm 2 m/s 752 mmHg 77%
02:00 +8°C° 0 mm 2 m/s 752 mmHg 78%
03:00 +8°C° 0 mm 2 m/s 752 mmHg 79%
04:00 +7°C° 0 mm 2 m/s 751 mmHg 80%
05:00 +8°C° 0 mm 2 m/s 752 mmHg 79%
06:00 +9°C° 0 mm 2 m/s 752 mmHg 78%
07:00 +9°C° 0 mm 2 m/s 752 mmHg 77%
08:00 +10°C° 0.1 mm 3 m/s 753 mmHg 77%
09:00 +11°C° 0.1 mm 3 m/s 753 mmHg 78%
10:00 +11°C° 0.1 mm 4 m/s 753 mmHg 79%
11:00 +8°C° 0.6 mm 4 m/s 754 mmHg 83%
12:00 +6°C° 0.6 mm 5 m/s 755 mmHg 88%
13:00 +3°C° 0.6 mm 5 m/s 756 mmHg 92%
14:00 +3°C° 0.4 mm 5 m/s 756 mmHg 90%
15:00 +4°C° 0.4 mm 4 m/s 757 mmHg 88%
16:00 +4°C° 0.4 mm 3 m/s 757 mmHg 86%
17:00 +5°C° 0.1 mm 2 m/s 757 mmHg 85%
18:00 +6°C° 0.1 mm 2 m/s 757 mmHg 84%
19:00 +7°C° 0.1 mm 1 m/s 758 mmHg 83%
20:00 +6°C° 0 mm 1 m/s 758 mmHg 85%
21:00 +5°C° 0 mm 2 m/s 758 mmHg 88%
22:00 +5°C° 0 mm 2 m/s 758 mmHg 90%
23:00 +4°C° 0 mm 2 m/s 758 mmHg 90%
Arată mai mult

Formular de consimțământ

Meteoprog și furnizorii noștri de servicii pot stoca și accesa date personale, precum cookies, identificatori de dispozitiv sau alte tehnologii similare pe dispozitivul dumneavoastră și procesa astfel de date pentru a personaliza conținutul și reclamele, dar și pentru a oferi caracteristici de social media și pentru a analiza traficul.

  • Stocarea și/sau accesarea informațiilor pe dispozitivul dumneavoastră

    Cookies, identificatori de dispozitiv sau alte informații pot fi stocate sau accesate pe dispozitiv în scopurile indicate mai sus.

  • Reclame și conținut personalizat, evaluarea reclamelor și a conținutului, informații despre audiențe și dezvoltarea produselor

    Reclamele și conținutul pot fi personalizate pe baza unui profil. Pot fi adăugate date suplimentare pentru a personaliza mai bine reclamele și conținutul. Performanța reclamelor și conținutului poate fi măsurată. Pot fi obținute informații despre utilizatorii care au văzut reclamele și conținutul. Aceste date pot fi utilizate pentru a dezvolta sau îmbunătăți experiența utilizatorilor, sistemele și software-ul.

Dând clic pe ‘Sunt de acord’, permiteți utilizarea cookie-urilor menționate, a identificatorilor de dispozitiv, balizelor web sau altor tehnologii similare. Setările pot fi modificate din browser-ul dispozitivului dumneavoastră.

În anumite scopuri, interesele legitime pot prima asupra consimțământului. Puteți citi mai multe informații în acest sens în Politica privind Confidențialitatea Datelor și Cookie.